Almeria, Spain

4:23 AM CEST on May 29, 2017 (GMT +0200)
Almeria

Weather History for LEAM - December, 2012

Change the Weather History Date:

Saturday, December 29, 2012

  Actual Average Record
Temperature  
Mean Temperature 52 °F -  
Max Temperature 60 °F 58 °F 69 °F (2000)
Min Temperature 44 °F 46 °F 41 °F (2001)
Degree Days  
Heating Degree Days 13    
Growing Degree Days 2 (Base 50)    
Moisture  
Dew Point 42 °F    
Average Humidity 63    
Maximum Humidity 88    
Minimum Humidity 32    
Precipitation  
Precipitation 0.00 in 0.04 in - ()
Sea Level Pressure  
Sea Level Pressure 30.31 in    
Wind  
Wind Speed 7 mph ()    
Max Wind Speed 17 mph    
Max Gust Speed -    
Visibility 6.2 miles    
Events      
Averages and records for this station are not official NWS values.
T = Trace of Precipitation, MM = Missing Value Source: Averaged Metar Reports

Daily Weather History Graph

Daily Weather History Graph

Search for Another Location

Airport or City:

Trip Planner

Search our weather history database for the weather conditions in past years. The results will help you decide how hot, cold, wet, or windy it might be!

Date:

Astronomy

Dec. 29, 2012 Rise Set
Actual Time 8:21 AM CET 6:01 PM CET
Civil Twilight 7:52 AM CET 6:30 PM CET
Nautical Twilight 7:20 AM CET 7:03 PM CET
Astronomical Twilight 6:48 AM CET 7:34 PM CET
Moon 7:18 PM CET 8:48 AM CET
Length of Visible Light 10h 37m
Length of Day
9h 39m
Full, 99% of the Moon is Illuminated
Dec 29
Full
Jan 5
Last Quarter
Jan 11
New
Jan 19
First Quarter
Jan 27
Full

Hourly Weather History & Observations

Time (CET) Temp. Windchill Dew Point Humidity Pressure Visibility Wind Dir Wind Speed Gust Speed Precip Events Conditions
1:00 AM 48 °F - 31 °F 40% 30.43 in - NW 10.4 mph - -  
5:00 AM 48.2 °F - 28.4 °F 46% 30.36 in - NNW 8.1 mph - N/A   Clear
5:30 AM 48.2 °F - 26.6 °F 43% 30.36 in - NW 10.4 mph - N/A   Clear
6:00 AM 48.2 °F - 26.6 °F 43% 30.36 in - NW 8.1 mph - N/A   Clear
6:30 AM 46.4 °F 42.4 °F 26.6 °F 46% 30.36 in - NW 8.1 mph - N/A   Clear
7:00 AM 46 °F - 26 °F 32% 30.36 in 22 mi NNW 9.2 mph - -  
7:00 AM 46.4 °F 42.4 °F 26.6 °F 46% 30.36 in - NNW 8.1 mph - N/A   Clear
7:30 AM 46.4 °F 43.5 °F 32.0 °F 57% 30.33 in - NNW 5.8 mph - N/A   Clear
8:00 AM 44.6 °F - 32.0 °F 61% 30.36 in - Calm Calm - N/A   Clear
8:30 AM 44.6 °F - 33.8 °F 66% 30.36 in - Variable 2.3 mph - N/A   Clear
9:00 AM 48.2 °F - 35.6 °F 62% 30.36 in - Variable 2.3 mph - N/A   Clear
9:30 AM 51.8 °F - 32.0 °F 47% 30.36 in - Variable 2.3 mph - N/A   Clear
10:00 AM 53.6 °F - 37.4 °F 54% 30.36 in - Variable 1.2 mph - N/A   Clear
10:30 AM 57.2 °F - 41.0 °F 55% 30.36 in - Calm Calm - N/A   Clear
11:00 AM 57.2 °F - 41.0 °F 55% 30.36 in - Variable 1.2 mph - N/A   Clear
11:30 AM 59.0 °F - 42.8 °F 55% 30.36 in - Variable 1.2 mph - N/A   Clear
12:00 PM 59.0 °F - 48.2 °F 67% 30.36 in - SSW 9.2 mph - N/A   Clear
12:30 PM 59.0 °F - 48.2 °F 67% 30.33 in - SW 11.5 mph - N/A   Clear
1:00 PM 60 °F - 44 °F 44% 30.33 in 28 mi SW 15.0 mph - -  
1:00 PM 60.8 °F - 46.4 °F 59% 30.33 in - SW 13.8 mph - N/A   Clear
1:30 PM 60.8 °F - 46.4 °F 59% 30.30 in - SW 15.0 mph - N/A   Clear
2:00 PM 60.8 °F - 46.4 °F 59% 30.30 in - SW 13.8 mph - N/A   Clear
2:30 PM 60.8 °F - 50.0 °F 68% 30.27 in - SW 17.3 mph - N/A   Clear
3:00 PM 62.6 °F - 48.2 °F 59% 30.24 in - SW 16.1 mph - N/A   Clear
3:30 PM 60.8 °F - 50.0 °F 68% 30.24 in - SW 16.1 mph - N/A   Clear
4:00 PM 60.8 °F - 51.8 °F 72% 30.24 in 6.2 mi SW 16.1 mph - N/A   Partly Cloudy
4:30 PM 60.8 °F - 51.8 °F 72% 30.24 in 6.2 mi SW 15.0 mph - N/A   Partly Cloudy
5:00 PM 60.8 °F - 50.0 °F 68% 30.24 in 6.2 mi SW 15.0 mph - N/A   Partly Cloudy
5:30 PM 60.8 °F - 51.8 °F 72% 30.21 in 6.2 mi SW 10.4 mph - N/A   Partly Cloudy
6:00 PM 59.0 °F - 51.8 °F 77% 30.24 in 6.2 mi WSW 10.4 mph - N/A   Partly Cloudy
7:00 PM 54 °F - 48 °F 73% 30.26 in 28 mi West 1.2 mph - -   Clear
7:00 PM 55.4 °F - 50.0 °F 82% 30.24 in - Calm Calm - N/A   Clear
7:30 PM 53.6 °F - 50.0 °F 88% 30.27 in - Variable 2.3 mph - N/A   Clear
8:00 PM 51.8 °F - 48.2 °F 88% 30.27 in - NW 4.6 mph - N/A   Clear
8:30 PM 51.8 °F - 48.2 °F 88% 30.27 in - Calm Calm - N/A   Clear
9:00 PM 53.6 °F - 48.2 °F 82% 30.27 in - Variable 1.2 mph - N/A   Clear
9:30 PM 55.4 °F - 48.2 °F 77% 30.27 in - Variable 1.2 mph - N/A   Clear
10:00 PM 53.6 °F - 48.2 °F 82% 30.27 in - North 3.5 mph - N/A   Clear
10:30 PM 53.6 °F - 48.2 °F 82% 30.27 in - Variable 2.3 mph - N/A   Clear